Time,TemperatureF,DewpointF,PressureIn,WindDirection,WindDirectionDegrees,WindSpeedMPH,WindSpeedGustMPH,Humidity,HourlyPrecipIn,Conditions,Clouds,dailyrainin,SolarRadiationWatts/m^2,SoftwareType,DateUTC
2013-10-12 00:00:00,59.7,57.7,29.84,SSE,156,0.0,2.0,93,0.00,RA,,0.00,0.0,WeatherDisplay:10.37,2013-10-12 05:00:00,
2013-10-12 00:05:00,59.7,57.7,29.85,SSE,156,1.0,4.0,93,0.00,RA,,0.00,0.0,WeatherDisplay:10.37,2013-10-12 05:05:00,
2013-10-12 00:10:00,59.6,57.6,29.86,SSE,155,1.0,6.0,93,0.00,CLR,,0.00,0.0,WeatherDisplay:10.37,2013-10-12 05:10:00,
2013-10-12 00:15:00,59.7,57.7,29.87,SSE,152,1.0,5.0,93,0.00,CLR,,0.00,0.0,WeatherDisplay:10.37,2013-10-12 05:15:00,
2013-10-12 00:20:00,59.8,57.8,29.87,SSE,160,1.0,7.0,93,0.00,CLR,,0.00,0.0,WeatherDisplay:10.37,2013-10-12 05:20:00,
2013-10-12 00:25:00,59.9,57.9,29.88,South,174,2.0,6.0,93,0.00,CLR,,0.00,0.0,WeatherDisplay:10.37,2013-10-12 05:25:00,
2013-10-12 00:30:00,60.0,58.0,29.88,South,177,2.0,7.0,93,0.00,CLR,,0.00,0.0,WeatherDisplay:10.37,2013-10-12 05:30:00,
2013-10-12 00:35:00,60.0,58.0,29.88,SSE,163,2.0,7.0,93,0.00,CLR,,0.00,0.0,WeatherDisplay:10.37,2013-10-12 05:35:00,
2013-10-12 00:40:00,60.0,58.0,29.88,SSE,153,1.0,4.0,93,0.00,CLR,,0.00,0.0,WeatherDisplay:10.37,2013-10-12 05:40:00,
2013-10-12 00:45:00,60.0,58.0,29.88,SSE,151,0.0,3.0,93,0.00,CLR,,0.00,0.0,WeatherDisplay:10.37,2013-10-12 05:45:00,
2013-10-12 00:50:00,59.9,57.9,29.88,SSE,152,0.0,3.0,93,0.00,CLR,,0.00,0.0,WeatherDisplay:10.37,2013-10-12 05:50:00,
2013-10-12 00:55:00,59.9,57.8,29.88,SSE,153,2.0,4.0,93,0.00,CLR,,0.00,0.0,WeatherDisplay:10.37,2013-10-12 05:55:00,
2013-10-12 01:00:00,59.9,57.9,29.88,SSE,153,1.0,5.0,93,0.00,CLR,,0.00,0.0,WeatherDisplay:10.37,2013-10-12 06:00:00,
2013-10-12 01:05:00,60.0,57.7,29.89,SSE,154,1.0,3.0,92,0.00,CLR,,0.00,0.0,WeatherDisplay:10.37,2013-10-12 06:05:00,
2013-10-12 01:10:00,60.0,57.7,29.89,SSE,154,1.0,5.0,92,0.00,CLR,,0.00,0.0,WeatherDisplay:10.37,2013-10-12 06:10:00,
2013-10-12 01:15:00,60.0,57.7,29.89,SSE,154,1.0,4.0,92,0.00,CLR,,0.00,0.0,WeatherDisplay:10.37,2013-10-12 06:15:00,
2013-10-12 01:20:00,60.0,57.7,29.88,SSE,154,0.0,3.0,92,0.00,CLR,,0.00,0.0,WeatherDisplay:10.37,2013-10-12 06:20:00,
2013-10-12 01:25:00,60.0,57.7,29.88,SSE,154,1.0,3.0,92,0.00,CLR,,0.00,0.0,WeatherDisplay:10.37,2013-10-12 06:25:00,
2013-10-12 01:30:00,60.0,57.7,29.88,South,182,1.0,4.0,92,0.00,CLR,,0.00,0.0,WeatherDisplay:10.37,2013-10-12 06:30:00,
2013-10-12 01:35:00,59.9,57.9,29.88,SW,234,2.0,4.0,93,0.00,CLR,,0.00,0.0,WeatherDisplay:10.37,2013-10-12 06:35:00,
2013-10-12 01:40:00,59.8,57.7,29.88,WNW,283,3.0,6.0,93,0.00,CLR,,0.00,0.0,WeatherDisplay:10.37,2013-10-12 06:40:00,
2013-10-12 01:45:00,59.7,57.7,29.89,WNW,292,3.0,7.0,93,0.00,CLR,,0.00,0.0,WeatherDisplay:10.37,2013-10-12 06:45:00,
2013-10-12 01:50:00,59.6,57.6,29.89,WNW,302,3.0,6.0,93,0.00,CLR,,0.00,0.0,WeatherDisplay:10.37,2013-10-12 06:50:00,
2013-10-12 02:00:00,59.4,57.1,29.89,NW,317,5.0,10.0,92,0.00,CLR,,0.00,0.0,WeatherDisplay:10.37,2013-10-12 07:00:00,
2013-10-12 02:05:00,59.3,57.0,29.90,NW,322,5.0,7.0,92,0.00,CLR,,0.00,0.0,WeatherDisplay:10.37,2013-10-12 07:05:00,
2013-10-12 02:10:00,59.2,56.6,29.90,NNW,332,5.0,24.0,91,0.00,CLR,,0.00,0.0,WeatherDisplay:10.37,2013-10-12 07:10:00,
2013-10-12 02:15:00,59.0,56.1,29.89,NNW,334,6.0,12.0,90,0.00,CLR,,0.00,0.0,WeatherDisplay:10.37,2013-10-12 07:15:00,
2013-10-12 02:20:00,58.9,55.4,29.89,NNW,338,6.0,10.0,88,0.00,CLR,,0.00,0.0,WeatherDisplay:10.37,2013-10-12 07:20:00,
2013-10-12 02:25:00,58.7,54.9,29.90,NNW,343,5.0,12.0,87,0.00,CLR,,0.00,0.0,WeatherDisplay:10.37,2013-10-12 07:25:00,
2013-10-12 02:30:00,58.4,53.9,29.90,NNW,339,6.0,12.0,85,0.00,CLR,,0.00,0.0,WeatherDisplay:10.37,2013-10-12 07:30:00,
2013-10-12 02:35:00,58.2,53.1,29.90,NNW,344,5.0,10.0,83,0.00,CLR,,0.00,0.0,WeatherDisplay:10.37,2013-10-12 07:35:00,
2013-10-12 02:40:00,57.9,52.5,29.90,NNW,344,5.0,9.0,82,0.00,CLR,,0.00,0.0,WeatherDisplay:10.37,2013-10-12 07:40:00,
2013-10-12 02:45:00,57.7,52.2,29.89,NNW,341,5.0,8.0,82,0.00,CLR,,0.00,0.0,WeatherDisplay:10.37,2013-10-12 07:45:00,
2013-10-12 02:50:00,57.4,51.6,29.89,NNW,344,7.0,12.0,81,0.00,CLR,,0.00,0.0,WeatherDisplay:10.37,2013-10-12 07:50:00,
2013-10-12 02:55:00,57.4,51.6,29.89,NNW,343,5.0,15.0,81,0.00,CLR,,0.00,0.0,WeatherDisplay:10.37,2013-10-12 07:55:00,
2013-10-12 03:00:00,57.2,51.1,29.90,NNW,343,6.0,12.0,80,0.00,CLR,,0.00,0.0,WeatherDisplay:10.37,2013-10-12 08:00:00,
2013-10-12 03:05:00,57.1,50.6,29.90,NNW,345,6.0,13.0,79,0.00,CLR,,0.00,0.0,WeatherDisplay:10.37,2013-10-12 08:05:00,
2013-10-12 03:10:00,56.9,50.5,29.90,NNW,343,6.0,12.0,79,0.00,CLR,,0.00,0.0,WeatherDisplay:10.37,2013-10-12 08:10:00,
2013-10-12 03:15:00,56.8,50.3,29.91,NNW,345,6.0,12.0,79,0.00,CLR,,0.00,0.0,WeatherDisplay:10.37,2013-10-12 08:15:00,
2013-10-12 03:20:00,56.7,49.9,29.91,NNW,340,5.0,12.0,78,0.00,CLR,,0.00,0.0,WeatherDisplay:10.37,2013-10-12 08:20:00,
2013-10-12 03:25:00,56.7,49.6,29.92,NNW,339,8.0,14.0,77,0.00,CLR,,0.00,0.0,WeatherDisplay:10.37,2013-10-12 08:25:00,
2013-10-12 03:30:00,56.7,49.6,29.92,NNW,345,5.0,12.0,77,0.00,CLR,,0.00,0.0,WeatherDisplay:10.37,2013-10-12 08:30:00,
2013-10-12 03:35:00,56.4,49.3,29.92,North,349,3.0,12.0,77,0.00,CLR,,0.00,0.0,WeatherDisplay:10.37,2013-10-12 08:35:00,
2013-10-12 03:40:00,56.3,49.2,29.93,North,350,5.0,12.0,77,0.00,CLR,,0.00,0.0,WeatherDisplay:10.37,2013-10-12 08:40:00,
2013-10-12 03:45:00,56.2,49.1,29.93,North,351,5.0,10.0,77,0.00,CLR,,0.00,0.0,WeatherDisplay:10.37,2013-10-12 08:45:00,
2013-10-12 03:50:00,56.0,48.9,29.93,North,353,5.0,10.0,77,0.00,CLR,,0.00,0.0,WeatherDisplay:10.37,2013-10-12 08:50:00,
2013-10-12 03:55:00,56.0,48.9,29.93,North,358,5.0,13.0,77,0.00,CLR,,0.00,0.0,WeatherDisplay:10.37,2013-10-12 08:55:00,
2013-10-12 04:00:00,55.9,48.4,29.94,NNW,346,5.0,13.0,76,0.00,CLR,,0.00,0.0,WeatherDisplay:10.37,2013-10-12 09:00:00,
2013-10-12 04:05:00,55.9,48.4,29.95,NNW,345,5.0,10.0,76,0.00,CLR,,0.00,0.0,WeatherDisplay:10.37,2013-10-12 09:05:00,
2013-10-12 04:10:00,55.7,48.2,29.95,North,355,5.0,9.0,76,0.00,CLR,,0.00,0.0,WeatherDisplay:10.37,2013-10-12 09:10:00,
2013-10-12 04:15:00,55.5,48.1,29.95,North,1,6.0,10.0,76,0.00,CLR,,0.00,0.0,WeatherDisplay:10.37,2013-10-12 09:15:00,
2013-10-12 04:20:00,55.4,48.0,29.95,North,360,6.0,12.0,76,0.00,CLR,,0.00,0.0,WeatherDisplay:10.37,2013-10-12 09:20:00,
2013-10-12 04:25:00,55.4,47.6,29.96,North,354,3.0,9.0,75,0.00,CLR,,0.00,0.0,WeatherDisplay:10.37,2013-10-12 09:25:00,
2013-10-12 04:30:00,55.3,47.5,29.96,North,352,5.0,12.0,75,0.00,CLR,,0.00,0.0,WeatherDisplay:10.37,2013-10-12 09:30:00,
2013-10-12 04:35:00,55.2,47.4,29.97,North,355,5.0,10.0,75,0.00,CLR,,0.00,0.0,WeatherDisplay:10.37,2013-10-12 09:35:00,
2013-10-12 04:40:00,55.0,47.2,29.97,NNW,348,5.0,10.0,75,0.00,CLR,,0.00,0.0,WeatherDisplay:10.37,2013-10-12 09:40:00,
2013-10-12 04:45:00,54.9,47.1,29.97,North,350,3.0,7.0,75,0.00,CLR,,0.00,0.0,WeatherDisplay:10.37,2013-10-12 09:45:00,
2013-10-12 04:50:00,54.7,46.9,29.97,North,351,2.0,6.0,75,0.00,CLR,,0.00,0.0,WeatherDisplay:10.37,2013-10-12 09:50:00,
2013-10-12 04:55:00,54.5,47.1,29.97,North,351,3.0,9.0,76,0.00,CLR,,0.00,0.0,WeatherDisplay:10.37,2013-10-12 09:55:00,
2013-10-12 05:00:00,54.3,46.9,29.97,North,352,3.0,7.0,76,0.00,CLR,,0.00,0.0,WeatherDisplay:10.37,2013-10-12 10:00:00,
2013-10-12 05:05:00,54.3,46.9,29.97,North,354,3.0,8.0,76,0.00,CLR,,0.00,0.0,WeatherDisplay:10.37,2013-10-12 10:05:00,
2013-10-12 05:10:00,54.2,46.5,29.98,North,350,5.0,12.0,75,0.00,CLR,,0.00,0.0,WeatherDisplay:10.37,2013-10-12 10:10:00,
2013-10-12 05:15:00,54.2,46.4,29.98,NNW,348,3.0,10.0,75,0.00,CLR,,0.00,0.0,WeatherDisplay:10.37,2013-10-12 10:15:00,
2013-10-12 05:25:00,54.0,46.3,29.98,North,350,3.0,8.0,75,0.00,CLR,,0.00,0.0,WeatherDisplay:10.37,2013-10-12 10:25:00,
2013-10-12 05:30:00,53.9,46.2,29.98,North,353,3.0,7.0,75,0.00,CLR,,0.00,0.0,WeatherDisplay:10.37,2013-10-12 10:30:00,
2013-10-12 05:40:00,53.7,45.9,29.99,NNW,345,2.0,5.0,75,0.00,CLR,,0.00,0.0,WeatherDisplay:10.37,2013-10-12 10:40:00,
2013-10-12 05:45:00,53.4,46.0,29.99,NNW,347,2.0,5.0,76,0.00,CLR,,0.00,0.0,WeatherDisplay:10.37,2013-10-12 10:45:00,
2013-10-12 05:50:00,53.1,45.7,30.00,NNW,341,3.0,6.0,76,0.00,CLR,,0.00,0.0,WeatherDisplay:10.37,2013-10-12 10:50:00,
2013-10-12 05:55:00,53.0,46.0,30.00,NNW,346,3.0,6.0,77,0.00,CLR,,0.00,0.0,WeatherDisplay:10.37,2013-10-12 10:55:00,
2013-10-12 06:00:00,53.0,45.6,30.00,North,352,3.0,7.0,76,0.00,CLR,,0.00,0.0,WeatherDisplay:10.37,2013-10-12 11:00:00,
2013-10-12 06:05:00,52.9,45.5,30.00,North,358,3.0,6.0,76,0.00,CLR,,0.00,0.0,WeatherDisplay:10.37,2013-10-12 11:05:00,
2013-10-12 06:10:00,52.9,45.2,30.00,North,3,3.0,7.0,75,0.00,CLR,,0.00,0.0,WeatherDisplay:10.37,2013-10-12 11:10:00,
2013-10-12 06:15:00,53.1,45.4,30.00,North,352,3.0,10.0,75,0.00,CLR,,0.00,0.0,WeatherDisplay:10.37,2013-10-12 11:15:00,
2013-10-12 06:20:00,53.1,45.0,30.01,North,349,3.0,6.0,74,0.00,CLR,,0.00,0.0,WeatherDisplay:10.37,2013-10-12 11:20:00,
2013-10-12 06:25:00,53.0,44.9,30.01,North,356,2.0,6.0,74,0.00,CLR,,0.00,0.0,WeatherDisplay:10.37,2013-10-12 11:25:00,
2013-10-12 06:30:00,52.8,44.8,30.01,North,354,2.0,5.0,74,0.00,CLR,,0.00,0.0,WeatherDisplay:10.37,2013-10-12 11:30:00,
2013-10-12 06:35:00,52.6,44.9,30.02,NNW,343,2.0,5.0,75,0.00,CLR,,0.00,0.0,WeatherDisplay:10.37,2013-10-12 11:35:00,
2013-10-12 06:40:00,52.4,44.7,30.02,North,349,2.0,5.0,75,0.00,CLR,,0.00,0.0,WeatherDisplay:10.37,2013-10-12 11:40:00,
2013-10-12 06:45:00,52.2,44.9,30.03,North,355,2.0,5.0,76,0.00,CLR,,0.00,0.0,WeatherDisplay:10.37,2013-10-12 11:45:00,
2013-10-12 06:50:00,52.1,44.8,30.03,North,352,2.0,5.0,76,0.00,CLR,,0.00,0.0,WeatherDisplay:10.37,2013-10-12 11:50:00,
2013-10-12 06:55:00,52.1,44.8,30.03,North,353,2.0,5.0,76,0.00,CLR,,0.00,0.0,WeatherDisplay:10.37,2013-10-12 11:55:00,
2013-10-12 07:00:00,51.9,44.6,30.04,North,352,3.0,7.0,76,0.00,OVC,,0.00,0.0,WeatherDisplay:10.37,2013-10-12 12:00:00,
2013-10-12 07:05:00,51.8,44.5,30.04,NNW,346,3.0,9.0,76,0.00,OVC,,0.00,0.0,WeatherDisplay:10.37,2013-10-12 12:05:00,
2013-10-12 07:10:00,51.8,44.5,30.04,NNW,341,3.0,8.0,76,0.00,OVC,,0.00,0.0,WeatherDisplay:10.37,2013-10-12 12:10:00,
2013-10-12 07:15:00,51.8,44.5,30.04,NNW,344,3.0,7.0,76,0.00,OVC,,0.00,0.0,WeatherDisplay:10.37,2013-10-12 12:15:00,
2013-10-12 07:20:00,51.8,44.5,30.04,NNW,348,3.0,7.0,76,0.00,OVC,,0.00,0.0,WeatherDisplay:10.37,2013-10-12 12:20:00,
2013-10-12 07:25:00,51.7,44.7,30.05,North,350,3.0,6.0,77,0.00,OVC,,0.00,0.0,WeatherDisplay:10.37,2013-10-12 12:25:00,
2013-10-12 07:30:00,51.5,44.5,30.05,North,349,1.0,5.0,77,0.00,OVC,,0.00,0.0,WeatherDisplay:10.37,2013-10-12 12:30:00,
2013-10-12 07:40:00,51.1,44.5,30.06,NNW,348,0.0,1.0,78,0.00,OVC,,0.00,9.0,WeatherDisplay:10.37,2013-10-12 12:40:00,
2013-10-12 07:45:00,50.8,44.5,30.06,NNW,348,0.0,0.0,79,0.00,OVC,,0.00,12.0,WeatherDisplay:10.37,2013-10-12 12:45:00,
2013-10-12 07:50:00,50.6,44.3,30.06,NNW,348,0.0,0.0,79,0.00,OVC,,0.00,37.0,WeatherDisplay:10.37,2013-10-12 12:50:00,
2013-10-12 07:55:00,50.6,44.7,30.07,NNW,348,0.0,0.0,80,0.00,OVC,,0.00,47.0,WeatherDisplay:10.37,2013-10-12 12:55:00,
2013-10-12 08:00:00,50.9,44.6,30.07,NNW,348,0.0,3.0,79,0.00,OVC,,0.00,62.0,WeatherDisplay:10.37,2013-10-12 13:00:00,
2013-10-12 08:05:00,51.3,45.0,30.07,NNW,348,0.0,1.0,79,0.00,CLR,,0.00,77.0,WeatherDisplay:10.37,2013-10-12 13:05:00,
2013-10-12 08:10:00,51.8,44.8,30.08,NNW,348,0.0,2.0,77,0.00,CLR,,0.00,93.0,WeatherDisplay:10.37,2013-10-12 13:10:00,
2013-10-12 08:15:00,52.1,45.1,30.08,NNW,348,0.0,2.0,77,0.00,CLR,,0.00,111.0,WeatherDisplay:10.37,2013-10-12 13:15:00,
2013-10-12 08:20:00,52.3,45.3,30.08,NNW,348,1.0,3.0,77,0.00,CLR,,0.00,125.0,WeatherDisplay:10.37,2013-10-12 13:20:00,
2013-10-12 08:25:00,52.4,45.4,30.08,NNW,348,1.0,3.0,77,0.00,CLR,,0.00,137.0,WeatherDisplay:10.37,2013-10-12 13:25:00,
2013-10-12 08:30:00,52.5,45.5,30.08,NNW,348,2.0,3.0,77,0.00,CLR,,0.00,153.0,WeatherDisplay:10.37,2013-10-12 13:30:00,
2013-10-12 08:35:00,52.7,46.0,30.09,NNW,348,1.0,3.0,78,0.00,CLR,,0.00,169.0,WeatherDisplay:10.37,2013-10-12 13:35:00,
2013-10-12 08:40:00,52.9,46.2,30.09,NNW,348,1.0,3.0,78,0.00,CLR,,0.00,183.0,WeatherDisplay:10.37,2013-10-12 13:40:00,
2013-10-12 08:45:00,53.1,46.1,30.09,NNW,347,1.0,4.0,77,0.00,CLR,,0.00,199.0,WeatherDisplay:10.37,2013-10-12 13:45:00,
2013-10-12 08:50:00,53.4,46.4,30.09,NNW,348,2.0,4.0,77,0.00,CLR,,0.00,216.0,WeatherDisplay:10.37,2013-10-12 13:50:00,
2013-10-12 08:55:00,53.8,46.4,30.09,North,356,2.0,6.0,76,0.00,CLR,,0.00,232.0,WeatherDisplay:10.37,2013-10-12 13:55:00,
2013-10-12 09:00:00,54.2,46.0,30.10,North,4,2.0,7.0,74,0.00,CLR,,0.00,246.0,WeatherDisplay:10.37,2013-10-12 14:00:00,
2013-10-12 09:05:00,54.5,46.4,30.10,North,357,3.0,12.0,74,0.00,CLR,,0.00,262.0,WeatherDisplay:10.37,2013-10-12 14:05:00,
2013-10-12 09:10:00,55.0,45.7,30.10,North,4,3.0,12.0,71,0.00,CLR,,0.00,278.0,WeatherDisplay:10.37,2013-10-12 14:10:00,
2013-10-12 09:15:00,55.3,45.7,30.10,North,357,3.0,9.0,70,0.00,CLR,,0.00,294.0,WeatherDisplay:10.37,2013-10-12 14:15:00,
2013-10-12 09:20:00,55.6,45.9,30.10,North,1,5.0,12.0,70,0.00,CLR,,0.00,309.0,WeatherDisplay:10.37,2013-10-12 14:20:00,
2013-10-12 09:25:00,55.7,45.7,30.11,North,360,3.0,12.0,69,0.00,CLR,,0.00,325.0,WeatherDisplay:10.37,2013-10-12 14:25:00,
2013-10-12 09:30:00,55.9,45.9,30.11,North,358,3.0,10.0,69,0.00,CLR,,0.00,339.0,WeatherDisplay:10.37,2013-10-12 14:30:00,
2013-10-12 09:35:00,56.1,45.3,30.11,NNW,347,7.0,14.0,67,0.00,CLR,,0.00,353.0,WeatherDisplay:10.37,2013-10-12 14:35:00,
2013-10-12 09:40:00,56.2,45.4,30.11,North,350,3.0,15.0,67,0.00,CLR,,0.00,367.0,WeatherDisplay:10.37,2013-10-12 14:40:00,
2013-10-12 09:45:00,56.4,45.2,30.11,North,353,6.0,12.0,66,0.00,CLR,,0.00,381.0,WeatherDisplay:10.37,2013-10-12 14:45:00,
2013-10-12 09:50:00,56.7,45.5,30.12,North,355,5.0,12.0,66,0.00,CLR,,0.00,397.0,WeatherDisplay:10.37,2013-10-12 14:50:00,
2013-10-12 09:55:00,56.7,45.1,30.12,North,360,6.0,15.0,65,0.00,CLR,,0.00,411.0,WeatherDisplay:10.37,2013-10-12 14:55:00,
2013-10-12 10:00:00,56.9,44.8,30.12,North,5,6.0,12.0,64,0.00,CLR,,0.00,425.0,WeatherDisplay:10.37,2013-10-12 15:00:00,
2013-10-12 10:05:00,57.0,45.0,30.12,NNE,12,6.0,12.0,64,0.00,CLR,,0.00,439.0,WeatherDisplay:10.37,2013-10-12 15:05:00,
2013-10-12 10:10:00,57.2,45.1,30.12,NNE,16,3.0,13.0,64,0.00,CLR,,0.00,450.0,WeatherDisplay:10.37,2013-10-12 15:10:00,
2013-10-12 10:15:00,57.7,45.6,30.12,North,8,5.0,9.0,64,0.00,CLR,,0.00,464.0,WeatherDisplay:10.37,2013-10-12 15:15:00,
2013-10-12 10:20:00,57.8,45.3,30.12,North,349,5.0,12.0,63,0.00,CLR,,0.00,478.0,WeatherDisplay:10.37,2013-10-12 15:20:00,
2013-10-12 10:25:00,58.0,45.0,30.12,North,352,5.0,12.0,62,0.00,CLR,,0.00,490.0,WeatherDisplay:10.37,2013-10-12 15:25:00,
2013-10-12 10:30:00,58.4,45.8,30.12,North,356,3.0,10.0,63,0.00,CLR,,0.00,503.0,WeatherDisplay:10.37,2013-10-12 15:30:00,
2013-10-12 10:35:00,58.6,45.2,30.12,North,1,5.0,12.0,61,0.00,CLR,,0.00,515.0,WeatherDisplay:10.37,2013-10-12 15:35:00,
2013-10-12 10:40:00,58.6,44.8,30.12,North,1,3.0,10.0,60,0.00,CLR,,0.00,527.0,WeatherDisplay:10.37,2013-10-12 15:40:00,
2013-10-12 10:45:00,58.8,44.9,30.12,North,354,3.0,9.0,60,0.00,CLR,,0.00,538.0,WeatherDisplay:10.37,2013-10-12 15:45:00,
2013-10-12 10:50:00,59.1,44.8,30.12,North,357,5.0,10.0,59,0.00,CLR,,0.00,548.0,WeatherDisplay:10.37,2013-10-12 15:50:00,
2013-10-12 10:55:00,59.2,44.9,30.12,NNE,19,5.0,12.0,59,0.00,CLR,,0.00,559.0,WeatherDisplay:10.37,2013-10-12 15:55:00,
2013-10-12 11:00:00,59.5,45.6,30.12,North,9,2.0,12.0,60,0.00,CLR,,0.00,568.0,WeatherDisplay:10.37,2013-10-12 16:00:00,
2013-10-12 11:05:00,60.0,45.7,30.13,NNW,338,5.0,12.0,59,0.00,CLR,,0.00,578.0,WeatherDisplay:10.37,2013-10-12 16:05:00,
2013-10-12 11:10:00,60.1,45.3,30.13,NW,324,6.0,12.0,58,0.00,CLR,,0.00,589.0,WeatherDisplay:10.37,2013-10-12 16:10:00,
2013-10-12 11:15:00,60.2,44.9,30.13,NW,324,5.0,9.0,57,0.00,CLR,,0.00,594.0,WeatherDisplay:10.37,2013-10-12 16:15:00,
2013-10-12 11:20:00,60.3,44.1,30.13,NNW,332,7.0,16.0,55,0.00,CLR,,0.00,601.0,WeatherDisplay:10.37,2013-10-12 16:20:00,
2013-10-12 11:25:00,60.5,44.3,30.13,NNW,333,7.0,12.0,55,0.00,CLR,,0.00,615.0,WeatherDisplay:10.37,2013-10-12 16:25:00,
2013-10-12 11:30:00,61.0,42.7,30.13,NNW,329,8.0,15.0,51,0.00,CLR,,0.00,622.0,WeatherDisplay:10.37,2013-10-12 16:30:00,
2013-10-12 11:35:00,61.4,43.1,30.14,North,356,7.0,14.0,51,0.00,CLR,,0.00,631.0,WeatherDisplay:10.37,2013-10-12 16:35:00,
2013-10-12 11:40:00,61.5,43.2,30.14,NNE,29,5.0,14.0,51,0.00,CLR,,0.00,638.0,WeatherDisplay:10.37,2013-10-12 16:40:00,
2013-10-12 11:45:00,61.8,43.5,30.14,NNE,26,6.0,12.0,51,0.00,CLR,,0.00,643.0,WeatherDisplay:10.37,2013-10-12 16:45:00,
2013-10-12 11:50:00,62.1,44.3,30.14,North,6,5.0,9.0,52,0.00,CLR,,0.00,647.0,WeatherDisplay:10.37,2013-10-12 16:50:00,
2013-10-12 11:55:00,62.3,45.4,30.14,North,4,5.0,12.0,54,0.00,CLR,,0.00,654.0,WeatherDisplay:10.37,2013-10-12 16:55:00,
2013-10-12 12:00:00,62.4,45.1,30.14,NNW,335,6.0,10.0,53,0.00,CLR,,0.00,659.0,WeatherDisplay:10.37,2013-10-12 17:00:00,
2013-10-12 12:05:00,62.5,45.6,30.14,NNW,338,3.0,12.0,54,0.00,CLR,,0.00,666.0,WeatherDisplay:10.37,2013-10-12 17:05:00,
2013-10-12 12:10:00,62.8,45.4,30.15,NNW,330,5.0,12.0,53,0.00,CLR,,0.00,670.0,WeatherDisplay:10.37,2013-10-12 17:10:00,
2013-10-12 12:15:00,63.2,45.7,30.15,NNW,328,2.0,8.0,53,0.00,CLR,,0.00,675.0,WeatherDisplay:10.37,2013-10-12 17:15:00,
2013-10-12 12:20:00,63.5,43.4,30.15,NNW,347,3.0,10.0,48,0.00,CLR,,0.00,680.0,WeatherDisplay:10.37,2013-10-12 17:20:00,
2013-10-12 12:25:00,63.3,42.2,30.15,NNE,21,5.0,13.0,46,0.00,CLR,,0.00,684.0,WeatherDisplay:10.37,2013-10-12 17:25:00,
2013-10-12 12:30:00,63.5,43.4,30.15,NNE,29,5.0,12.0,48,0.00,CLR,,0.00,687.0,WeatherDisplay:10.37,2013-10-12 17:30:00,
2013-10-12 12:35:00,63.5,42.9,30.15,NNE,15,6.0,10.0,47,0.00,CLR,,0.00,691.0,WeatherDisplay:10.37,2013-10-12 17:35:00,
2013-10-12 12:40:00,63.3,42.2,30.15,North,8,8.0,13.0,46,0.00,CLR,,0.00,682.0,WeatherDisplay:10.37,2013-10-12 17:40:00,
2013-10-12 12:45:00,63.3,42.7,30.15,NNW,347,5.0,14.0,47,0.00,CLR,,0.00,694.0,WeatherDisplay:10.37,2013-10-12 17:45:00,
2013-10-12 12:50:00,63.6,43.5,30.16,NNW,339,3.0,9.0,48,0.00,CLR,,0.00,696.0,WeatherDisplay:10.37,2013-10-12 17:50:00,
2013-10-12 12:55:00,63.9,42.7,30.15,North,7,3.0,12.0,46,0.00,CLR,,0.00,698.0,WeatherDisplay:10.37,2013-10-12 17:55:00,
2013-10-12 13:00:00,64.4,43.8,30.15,North,2,3.0,9.0,47,0.00,CLR,,0.00,698.0,WeatherDisplay:10.37,2013-10-12 18:00:00,
2013-10-12 13:05:00,64.3,44.2,30.15,North,356,3.0,10.0,48,0.00,CLR,,0.00,698.0,WeatherDisplay:10.37,2013-10-12 18:05:00,
2013-10-12 13:10:00,64.3,42.5,30.15,NE,35,6.0,15.0,45,0.00,CLR,,0.00,698.0,WeatherDisplay:10.37,2013-10-12 18:10:00,
2013-10-12 13:15:00,64.3,43.6,30.15,NNE,19,3.0,10.0,47,0.00,CLR,,0.00,698.0,WeatherDisplay:10.37,2013-10-12 18:15:00,
2013-10-12 13:20:00,64.6,42.8,30.15,NNW,334,6.0,12.0,45,0.00,CLR,,0.00,696.0,WeatherDisplay:10.37,2013-10-12 18:20:00,
2013-10-12 13:25:00,64.6,42.8,30.15,NW,326,6.0,12.0,45,0.00,CLR,,0.00,696.0,WeatherDisplay:10.37,2013-10-12 18:25:00,
2013-10-12 13:30:00,64.7,42.3,30.15,NW,323,7.0,12.0,44,0.00,CLR,,0.00,694.0,WeatherDisplay:10.37,2013-10-12 18:30:00,
2013-10-12 13:35:00,64.7,42.3,30.15,NNW,346,6.0,15.0,44,0.00,CLR,,0.00,691.0,WeatherDisplay:10.37,2013-10-12 18:35:00,
2013-10-12 13:40:00,65.1,43.2,30.15,North,11,6.0,12.0,45,0.00,CLR,,0.00,687.0,WeatherDisplay:10.37,2013-10-12 18:40:00,
2013-10-12 13:50:00,65.2,42.7,30.14,North,359,3.0,12.0,44,0.00,CLR,,0.00,682.0,WeatherDisplay:10.37,2013-10-12 18:50:00,
2013-10-12 13:55:00,65.6,43.1,30.14,North,9,6.0,12.0,44,0.00,CLR,,0.00,679.0,WeatherDisplay:10.37,2013-10-12 18:55:00,
2013-10-12 14:00:00,65.8,42.7,30.13,North,4,5.0,12.0,43,0.00,CLR,,0.00,675.0,WeatherDisplay:10.37,2013-10-12 19:00:00,
2013-10-12 14:05:00,66.1,42.3,30.13,North,7,8.0,16.0,42,0.00,CLR,,0.00,670.0,WeatherDisplay:10.37,2013-10-12 19:05:00,
2013-10-12 14:10:00,66.1,42.9,30.13,North,351,5.0,10.0,43,0.00,CLR,,0.00,664.0,WeatherDisplay:10.37,2013-10-12 19:10:00,
2013-10-12 14:15:00,66.5,44.5,30.14,North,351,2.0,12.0,45,0.00,CLR,,0.00,659.0,WeatherDisplay:10.37,2013-10-12 19:15:00,
2013-10-12 14:20:00,66.6,44.0,30.13,NNW,336,3.0,12.0,44,0.00,CLR,,0.00,654.0,WeatherDisplay:10.37,2013-10-12 19:20:00,
2013-10-12 14:25:00,66.5,42.1,30.13,NW,311,9.0,17.0,41,0.00,CLR,,0.00,647.0,WeatherDisplay:10.37,2013-10-12 19:25:00,
2013-10-12 14:30:00,66.7,42.8,30.14,NW,317,5.0,13.0,42,0.00,CLR,,0.00,640.0,WeatherDisplay:10.37,2013-10-12 19:30:00,
2013-10-12 14:40:00,67.0,42.5,30.13,NNW,346,7.0,12.0,41,0.00,CLR,,0.00,626.0,WeatherDisplay:10.37,2013-10-12 19:40:00,
2013-10-12 14:45:00,67.0,42.5,30.14,NNW,344,5.0,12.0,41,0.00,CLR,,0.00,621.0,WeatherDisplay:10.37,2013-10-12 19:45:00,
2013-10-12 14:50:00,67.1,42.0,30.14,North,2,6.0,10.0,40,0.00,CLR,,0.00,610.0,WeatherDisplay:10.37,2013-10-12 19:50:00,
2013-10-12 14:55:00,67.4,42.8,30.14,North,8,2.0,10.0,41,0.00,CLR,,0.00,601.0,WeatherDisplay:10.37,2013-10-12 19:55:00,
2013-10-12 15:00:00,67.3,42.2,30.14,North,6,7.0,14.0,40,0.00,CLR,,0.00,592.0,WeatherDisplay:10.37,2013-10-12 20:00:00,
2013-10-12 15:05:00,67.2,42.7,30.14,North,352,2.0,9.0,41,0.00,CLR,,0.00,584.0,WeatherDisplay:10.37,2013-10-12 20:05:00,
2013-10-12 15:10:00,67.4,41.6,30.14,North,1,5.0,12.0,39,0.00,CLR,,0.00,573.0,WeatherDisplay:10.37,2013-10-12 20:10:00,
2013-10-12 15:15:00,67.7,43.1,30.14,North,5,3.0,10.0,41,0.00,CLR,,0.00,564.0,WeatherDisplay:10.37,2013-10-12 20:15:00,
2013-10-12 15:20:00,67.8,41.9,30.14,NNE,20,5.0,12.0,39,0.00,CLR,,0.00,554.0,WeatherDisplay:10.37,2013-10-12 20:20:00,
2013-10-12 15:25:00,68.0,42.1,30.14,North,11,3.0,9.0,39,0.00,CLR,,0.00,541.0,WeatherDisplay:10.37,2013-10-12 20:25:00,
2013-10-12 15:30:00,68.1,41.5,30.14,NNW,345,6.0,10.0,38,0.00,CLR,,0.00,533.0,WeatherDisplay:10.37,2013-10-12 20:30:00,
2013-10-12 15:40:00,67.9,41.3,30.14,NNW,329,5.0,10.0,38,0.00,CLR,,0.00,510.0,WeatherDisplay:10.37,2013-10-12 20:40:00,
2013-10-12 15:45:00,68.0,42.8,30.14,NNW,342,3.0,10.0,40,0.00,CLR,,0.00,497.0,WeatherDisplay:10.37,2013-10-12 20:45:00,
2013-10-12 15:50:00,68.1,41.5,30.14,NNW,333,3.0,12.0,38,0.00,CLR,,0.00,487.0,WeatherDisplay:10.37,2013-10-12 20:50:00,
2013-10-12 15:55:00,68.2,42.3,30.13,NNW,340,2.0,9.0,39,0.00,CLR,,0.00,473.0,WeatherDisplay:10.37,2013-10-12 20:55:00,
2013-10-12 16:00:00,68.6,42.7,30.13,North,353,2.0,7.0,39,0.00,CLR,,0.00,461.0,WeatherDisplay:10.37,2013-10-12 21:00:00,
2013-10-12 16:05:00,68.6,41.3,30.13,North,7,3.0,9.0,37,0.00,CLR,,0.00,445.0,WeatherDisplay:10.37,2013-10-12 21:05:00,
2013-10-12 16:10:00,68.4,40.4,30.13,North,2,5.0,12.0,36,0.00,CLR,,0.00,434.0,WeatherDisplay:10.37,2013-10-12 21:10:00,
2013-10-12 16:15:00,68.5,41.9,30.13,North,6,3.0,7.0,38,0.00,CLR,,0.00,420.0,WeatherDisplay:10.37,2013-10-12 21:15:00,
2013-10-12 16:20:00,68.5,42.6,30.13,North,0,3.0,12.0,39,0.00,CLR,,0.00,404.0,WeatherDisplay:10.37,2013-10-12 21:20:00,
2013-10-12 16:25:00,68.5,41.9,30.13,NNW,343,3.0,10.0,38,0.00,CLR,,0.00,394.0,WeatherDisplay:10.37,2013-10-12 21:25:00,
2013-10-12 16:30:00,68.2,40.9,30.13,North,359,3.0,7.0,37,0.00,CLR,,0.00,378.0,WeatherDisplay:10.37,2013-10-12 21:30:00,
2013-10-12 16:45:00,68.1,41.5,30.13,North,3,2.0,17.0,38,0.00,CLR,,0.00,332.0,WeatherDisplay:10.37,2013-10-12 21:45:00,
2013-10-12 16:55:00,68.2,41.6,30.13,NNW,339,3.0,9.0,38,0.00,FEW,,0.00,301.0,WeatherDisplay:10.37,2013-10-12 21:55:00,
2013-10-12 17:00:00,68.3,42.4,30.14,NNW,337,3.0,8.0,39,0.00,FEW,,0.00,287.0,WeatherDisplay:10.37,2013-10-12 22:00:00,
2013-10-12 17:05:00,68.1,40.8,30.13,NNW,347,3.0,8.0,37,0.00,FEW,,0.00,271.0,WeatherDisplay:10.37,2013-10-12 22:05:00,
2013-10-12 17:10:00,68.0,40.7,30.13,North,357,1.0,7.0,37,0.00,FEW,,0.00,255.0,WeatherDisplay:10.37,2013-10-12 22:10:00,
2013-10-12 17:15:00,67.8,40.5,30.14,NNE,14,5.0,9.0,37,0.00,FEW,,0.00,239.0,WeatherDisplay:10.37,2013-10-12 22:15:00,
2013-10-12 17:20:00,67.6,39.7,30.14,NNE,24,5.0,7.0,36,0.00,FEW,,0.00,223.0,WeatherDisplay:10.37,2013-10-12 22:20:00,
2013-10-12 17:25:00,67.6,40.4,30.14,NNE,26,3.0,6.0,37,0.00,FEW,,0.00,206.0,WeatherDisplay:10.37,2013-10-12 22:25:00,
2013-10-12 17:30:00,67.6,39.0,30.14,NNE,29,2.0,10.0,35,0.00,FEW,,0.00,193.0,WeatherDisplay:10.37,2013-10-12 22:30:00,
2013-10-12 17:40:00,67.3,39.4,30.14,NNE,24,2.0,6.0,36,0.00,FEW,,0.00,162.0,WeatherDisplay:10.37,2013-10-12 22:40:00,
2013-10-12 17:45:00,67.2,40.0,30.14,North,355,3.0,7.0,37,0.00,FEW,,0.00,146.0,WeatherDisplay:10.37,2013-10-12 22:45:00,
2013-10-12 17:50:00,67.2,40.0,30.14,NNW,342,2.0,6.0,37,0.00,SCT,,0.00,130.0,WeatherDisplay:10.37,2013-10-12 22:50:00,
2013-10-12 17:55:00,67.2,40.7,30.14,North,353,2.0,4.0,38,0.00,SCT,,0.00,116.0,WeatherDisplay:10.37,2013-10-12 22:55:00,
2013-10-12 18:00:00,67.0,40.5,30.14,North,354,0.0,5.0,38,0.00,SCT,,0.00,100.0,WeatherDisplay:10.37,2013-10-12 23:00:00,
2013-10-12 18:05:00,67.0,41.9,30.14,North,349,2.0,5.0,40,0.00,SCT,,0.00,88.0,WeatherDisplay:10.37,2013-10-12 23:05:00,
2013-10-12 18:10:00,66.7,40.3,30.15,North,360,1.0,4.0,38,0.00,SCT,,0.00,72.0,WeatherDisplay:10.37,2013-10-12 23:10:00,
2013-10-12 18:15:00,66.5,40.8,30.15,NNE,16,2.0,4.0,39,0.00,BKN,,0.00,56.0,WeatherDisplay:10.37,2013-10-12 23:15:00,
2013-10-12 18:20:00,66.2,40.5,30.15,NNE,15,2.0,5.0,39,0.00,BKN,,0.00,42.0,WeatherDisplay:10.37,2013-10-12 23:20:00,
2013-10-12 18:25:00,65.8,40.8,30.15,North,3,2.0,4.0,40,0.00,BKN,,0.00,30.0,WeatherDisplay:10.37,2013-10-12 23:25:00,
2013-10-12 18:30:00,65.4,41.1,30.15,North,360,0.0,3.0,41,0.00,BKN,,0.00,12.0,WeatherDisplay:10.37,2013-10-12 23:30:00,
2013-10-12 18:35:00,64.9,40.6,30.15,North,360,1.0,3.0,41,0.00,BKN,,0.00,11.0,WeatherDisplay:10.37,2013-10-12 23:35:00,
2013-10-12 18:40:00,64.4,40.8,30.15,NNE,13,2.0,4.0,42,0.00,BKN,,0.00,7.0,WeatherDisplay:10.37,2013-10-12 23:40:00,
2013-10-12 18:45:00,64.0,40.4,30.15,NNE,29,2.0,4.0,42,0.00,OVC,,0.00,5.0,WeatherDisplay:10.37,2013-10-12 23:45:00,
2013-10-12 18:50:00,63.7,40.8,30.15,NNE,31,1.0,4.0,43,0.00,OVC,,0.00,0.0,WeatherDisplay:10.37,2013-10-12 23:50:00,
2013-10-12 18:55:00,63.4,41.1,30.15,NNE,25,0.0,3.0,44,0.00,OVC,,0.00,0.0,WeatherDisplay:10.37,2013-10-12 23:55:00,
2013-10-12 19:00:00,63.2,40.9,30.15,NNE,25,1.0,4.0,44,0.00,CLR,,0.00,0.0,WeatherDisplay:10.37,2013-10-13 00:00:00,
2013-10-12 19:05:00,63.1,40.8,30.15,NNE,24,1.0,3.0,44,0.00,CLR,,0.00,0.0,WeatherDisplay:10.37,2013-10-13 00:05:00,
2013-10-12 19:10:00,62.9,41.2,30.15,NNE,24,1.0,4.0,45,0.00,CLR,,0.00,0.0,WeatherDisplay:10.37,2013-10-13 00:10:00,
2013-10-12 19:15:00,62.8,40.5,30.16,NNE,23,1.0,5.0,44,0.00,CLR,,0.00,0.0,WeatherDisplay:10.37,2013-10-13 00:15:00,
2013-10-12 19:20:00,62.7,40.5,30.16,NNE,21,2.0,4.0,44,0.00,CLR,,0.00,0.0,WeatherDisplay:10.37,2013-10-13 00:20:00,
2013-10-12 19:25:00,62.6,40.4,30.16,NNE,20,2.0,4.0,44,0.00,CLR,,0.00,0.0,WeatherDisplay:10.37,2013-10-13 00:25:00,
2013-10-12 19:30:00,62.4,40.2,30.16,NNE,20,2.0,3.0,44,0.00,CLR,,0.00,0.0,WeatherDisplay:10.37,2013-10-13 00:30:00,
2013-10-12 19:35:00,62.3,40.1,30.17,NNE,20,2.0,4.0,44,0.00,CLR,,0.00,0.0,WeatherDisplay:10.37,2013-10-13 00:35:00,
2013-10-12 19:40:00,62.2,40.0,30.17,NNE,23,2.0,4.0,44,0.00,CLR,,0.00,0.0,WeatherDisplay:10.37,2013-10-13 00:40:00,
2013-10-12 19:45:00,62.1,40.5,30.17,NNE,25,2.0,3.0,45,0.00,CLR,,0.00,0.0,WeatherDisplay:10.37,2013-10-13 00:45:00,
2013-10-12 19:50:00,62.0,40.4,30.17,NNE,26,2.0,4.0,45,0.00,CLR,,0.00,0.0,WeatherDisplay:10.37,2013-10-13 00:50:00,
2013-10-12 19:55:00,61.8,40.2,30.17,NNE,26,2.0,4.0,45,0.00,CLR,,0.00,0.0,WeatherDisplay:10.37,2013-10-13 00:55:00,
2013-10-12 20:00:00,61.7,40.7,30.18,NNE,26,1.0,3.0,46,0.00,CLR,,0.00,0.0,WeatherDisplay:10.37,2013-10-13 01:00:00,
2013-10-12 20:05:00,61.6,40.6,30.18,NNE,26,1.0,3.0,46,0.00,CLR,,0.00,0.0,WeatherDisplay:10.37,2013-10-13 01:05:00,
2013-10-12 20:10:00,61.5,40.5,30.18,NNE,26,1.0,3.0,46,0.00,CLR,,0.00,0.0,WeatherDisplay:10.37,2013-10-13 01:10:00,
2013-10-12 20:15:00,61.5,40.5,30.18,NNE,26,1.0,3.0,46,0.00,CLR,,0.00,0.0,WeatherDisplay:10.37,2013-10-13 01:15:00,
2013-10-12 20:20:00,61.4,41.0,30.18,NNE,26,1.0,4.0,47,0.00,CLR,,0.00,0.0,WeatherDisplay:10.37,2013-10-13 01:20:00,
2013-10-12 20:25:00,61.2,40.8,30.18,NNE,26,1.0,3.0,47,0.00,CLR,,0.00,0.0,WeatherDisplay:10.37,2013-10-13 01:25:00,
2013-10-12 20:30:00,61.1,40.7,30.19,NNE,26,1.0,3.0,47,0.00,CLR,,0.00,0.0,WeatherDisplay:10.37,2013-10-13 01:30:00,
2013-10-12 20:35:00,61.0,40.6,30.19,NNE,26,0.0,2.0,47,0.00,CLR,,0.00,0.0,WeatherDisplay:10.37,2013-10-13 01:35:00,
2013-10-12 20:40:00,60.8,40.9,30.19,NNE,26,1.0,3.0,48,0.00,CLR,,0.00,0.0,WeatherDisplay:10.37,2013-10-13 01:40:00,
2013-10-12 20:45:00,60.6,40.8,30.19,NNE,26,1.0,3.0,48,0.00,CLR,,0.00,0.0,WeatherDisplay:10.37,2013-10-13 01:45:00,
2013-10-12 20:50:00,60.5,40.7,30.20,NNE,27,0.0,2.0,48,0.00,CLR,,0.00,0.0,WeatherDisplay:10.37,2013-10-13 01:50:00,
2013-10-12 20:55:00,60.4,41.1,30.20,NNE,27,1.0,2.0,49,0.00,CLR,,0.00,0.0,WeatherDisplay:10.37,2013-10-13 01:55:00,
2013-10-12 21:00:00,60.2,40.9,30.20,NNE,26,0.0,2.0,49,0.00,CLR,,0.00,0.0,WeatherDisplay:10.37,2013-10-13 02:00:00,
2013-10-12 21:05:00,59.9,41.2,30.20,NNE,26,0.0,2.0,50,0.00,CLR,,0.00,0.0,WeatherDisplay:10.37,2013-10-13 02:05:00,
2013-10-12 21:10:00,59.7,41.5,30.20,NNE,26,0.0,2.0,51,0.00,CLR,,0.00,0.0,WeatherDisplay:10.37,2013-10-13 02:10:00,
2013-10-12 21:15:00,59.5,40.8,30.21,NNE,26,0.0,1.0,50,0.00,CLR,,0.00,0.0,WeatherDisplay:10.37,2013-10-13 02:15:00,
2013-10-12 21:20:00,59.4,40.7,30.21,NNE,26,0.0,2.0,50,0.00,CLR,,0.00,0.0,WeatherDisplay:10.37,2013-10-13 02:20:00,
2013-10-12 21:25:00,59.3,40.7,30.21,NNE,26,1.0,2.0,50,0.00,CLR,,0.00,0.0,WeatherDisplay:10.37,2013-10-13 02:25:00,
2013-10-12 21:30:00,59.3,40.7,30.21,NNE,27,0.0,2.0,50,0.00,CLR,,0.00,0.0,WeatherDisplay:10.37,2013-10-13 02:30:00,
2013-10-12 21:35:00,59.2,40.6,30.22,NNE,26,1.0,2.0,50,0.00,CLR,,0.00,0.0,WeatherDisplay:10.37,2013-10-13 02:35:00,
2013-10-12 21:40:00,59.1,41.0,30.22,NNE,26,0.0,2.0,51,0.00,CLR,,0.00,0.0,WeatherDisplay:10.37,2013-10-13 02:40:00,
2013-10-12 21:45:00,59.0,40.9,30.22,NNE,26,1.0,2.0,51,0.00,CLR,,0.00,0.0,WeatherDisplay:10.37,2013-10-13 02:45:00,
2013-10-12 21:50:00,59.0,40.9,30.22,NNE,26,0.0,2.0,51,0.00,CLR,,0.00,0.0,WeatherDisplay:10.37,2013-10-13 02:50:00,
2013-10-12 21:55:00,59.1,40.4,30.22,NNE,26,2.0,3.0,50,0.00,CLR,,0.00,0.0,WeatherDisplay:10.37,2013-10-13 02:55:00,
2013-10-12 22:00:00,59.1,40.5,30.23,NNE,26,1.0,3.0,50,0.00,CLR,,0.00,0.0,WeatherDisplay:10.37,2013-10-13 03:00:00,
2013-10-12 22:05:00,59.0,40.4,30.23,NNE,26,1.0,3.0,50,0.00,CLR,,0.00,0.0,WeatherDisplay:10.37,2013-10-13 03:05:00,
2013-10-12 22:10:00,58.9,40.8,30.23,NNE,26,1.0,2.0,51,0.00,CLR,,0.00,0.0,WeatherDisplay:10.37,2013-10-13 03:10:00,
2013-10-12 22:15:00,58.7,40.6,30.23,NNE,26,0.0,3.0,51,0.00,CLR,,0.00,0.0,WeatherDisplay:10.37,2013-10-13 03:15:00,
2013-10-12 22:20:00,58.5,40.9,30.23,NNE,26,1.0,2.0,52,0.00,CLR,,0.00,0.0,WeatherDisplay:10.37,2013-10-13 03:20:00,
2013-10-12 22:25:00,58.3,40.3,30.24,NNE,26,1.0,2.0,51,0.00,CLR,,0.00,0.0,WeatherDisplay:10.37,2013-10-13 03:25:00,
2013-10-12 22:30:00,58.4,40.8,30.24,NNE,26,0.0,2.0,52,0.00,CLR,,0.00,0.0,WeatherDisplay:10.37,2013-10-13 03:30:00,
2013-10-12 22:35:00,58.2,40.7,30.24,NNE,26,0.0,2.0,52,0.00,CLR,,0.00,0.0,WeatherDisplay:10.37,2013-10-13 03:35:00,
2013-10-12 22:45:00,58.0,41.0,30.25,NNE,26,0.0,1.0,53,0.00,CLR,,0.00,0.0,WeatherDisplay:10.37,2013-10-13 03:45:00,
2013-10-12 22:50:00,57.9,40.9,30.25,NNE,26,0.0,2.0,53,0.00,CLR,,0.00,0.0,WeatherDisplay:10.37,2013-10-13 03:50:00,
2013-10-12 22:55:00,57.9,40.8,30.25,NNE,26,0.0,2.0,53,0.00,CLR,,0.00,0.0,WeatherDisplay:10.37,2013-10-13 03:55:00,
2013-10-12 23:00:00,57.7,40.7,30.25,NNE,26,0.0,2.0,53,0.00,CLR,,0.00,0.0,WeatherDisplay:10.37,2013-10-13 04:00:00,
2013-10-12 23:05:00,57.6,40.1,30.25,NNE,26,0.0,2.0,52,0.00,CLR,,0.00,0.0,WeatherDisplay:10.37,2013-10-13 04:05:00,
2013-10-12 23:10:00,57.6,40.1,30.25,NNE,26,0.0,2.0,52,0.00,CLR,,0.00,0.0,WeatherDisplay:10.37,2013-10-13 04:10:00,
2013-10-12 23:15:00,57.7,40.2,30.25,NNE,26,1.0,1.0,52,0.00,CLR,,0.00,0.0,WeatherDisplay:10.37,2013-10-13 04:15:00,
2013-10-12 23:20:00,57.7,40.2,30.25,NNE,26,0.0,2.0,52,0.00,CLR,,0.00,0.0,WeatherDisplay:10.37,2013-10-13 04:20:00,
2013-10-12 23:25:00,57.6,40.6,30.25,NNE,26,0.0,1.0,53,0.00,CLR,,0.00,0.0,WeatherDisplay:10.37,2013-10-13 04:25:00,
2013-10-12 23:35:00,57.2,40.2,30.25,NNE,26,0.0,2.0,53,0.00,CLR,,0.00,0.0,WeatherDisplay:10.37,2013-10-13 04:35:00,
2013-10-12 23:40:00,57.1,40.6,30.25,NNE,26,0.0,1.0,54,0.00,CLR,,0.00,0.0,WeatherDisplay:10.37,2013-10-13 04:40:00,
2013-10-12 23:45:00,56.9,40.9,30.26,NNE,26,0.0,1.0,55,0.00,CLR,,0.00,0.0,WeatherDisplay:10.37,2013-10-13 04:45:00,
2013-10-12 23:50:00,56.7,40.7,30.26,NNE,26,0.0,1.0,55,0.00,CLR,,0.00,0.0,WeatherDisplay:10.37,2013-10-13 04:50:00,
2013-10-12 23:55:00,56.6,41.1,30.26,NNE,26,0.0,1.0,56,0.00,CLR,,0.00,0.0,WeatherDisplay:10.37,2013-10-13 04:55:00,